TITAN 3C TRANSTAGE DEB, 36980

Orbit data source: Space-Track

TITAN 3C TRANSTAGE DEB, 36980 is space debris in HEO originally from a launch on Tue, 21 Dec 1965 UTC launched from the Air Force Eastern Test Range (AFETR). Debris objects in space refer to the collection of defunct objects orbiting the Earth. Examples of debris include non-operational satellites, rocket bodies, and fragments generated from explosions, collisions, or faulty payload assembly.

Loading next visibility...
Identifier
36980, 1965-108DL
Orbit
HEO
Country
Flag of USUS
Related business
Manufacturer
Unknown
Mission
Spacecraft
Bus & Motor
Unknown
Mass
Unknown
Launch date (UTC)
1965-12-21 (60 years ago)
Launch vehicle
Unknown
Launch site
Air Force Eastern Test Range (AFETR)
Object type
Payload
Rocket body
Debris
Shape & HBR
Unknown shape, 0.1 m
Radar Cross Section
Small (<0.1 m²)

Expand to show TLE details & history
Last TLE update: 3 months ago

TLE from 3 months ago
0 TITAN 3C TRANSTAGE DEB
1 36980U 65108DL  25313.65883623 -.00000046  00000-0 -23413-3 0  9999
2 36980  26.8426 287.5629 6786788 208.0903 356.1453  2.70789170 14426
Epoch: 2025-11-09T15:48Z
TLE epoch observation values (Epoch: 2025-11-09T15:48:43.450Z)
Latitude
-0.7144°
Longitude
-177.30552°
Altitude
938.861 km
Speed
9.519 km/s
True Right ascension
07h 15m 47s
True Declination
0° 42' 37"
Sunlit
Object was in daylight at epoch
Visualization orbit readout
Latitude
Unknown
Longitude
Unknown
Altitude
Unknown
Speed
Unknown
Apparent Right ascension
Unknown
Apparent Declination
Unknown
Sunlit
N/A
Visualization observer readout
Local Sidereal Time
03:54:33
Azimuth
Unknown
Elevation
Unknown
Doppler factor
Unknown
Orbital elements
Apogee altitude
30,126.925 km
Perigee altitude
609.412 km
Semi-major axis
21,746.305 km
Eccentricity
0.67868
Inclination
26.8426°
RAAN
287.5629°
Arg. of periapsis
208.0903°
True anomaly
333.37735°
Mean anomaly
356.1453°
Eccentric anomaly
348.18029°
Mean motion
0.67681 °/min
Orbital period
531.91 mins
BSTAR
-0.00023413
Loading maneuver chart data...
Computing Atmospheric mass density...

Documentation

Showing up to 5 results
|